Location: Central Falls
(41.8900°N, 71.3929°W)
Time: 03:53:24
(UTC+00:00)

Tiros 1 - Pass Details

Date: 06 December 2023
Orbit: 625 x 658 km, 48.4° (Epoch: 01 March)

Event Time Altitude Azimuth Distance (km) Brightness Sun altitude
Rises 11:32:35 0° 285° (WNW) 2,986 - -5.1°
Exits shadow 11:34:03 - 289° (WNW) 2,447 9.4 -4.8°
Reaches altitude 10° 11:35:05 10° 294° (WNW) 2,075 9.1 -4.7°
Maximum altitude 11:39:33 37° 2° (N) 1,018 8.0 -3.9°
Drops below altitude 10° 11:44:00 10° 71° (ENE) 2,069 10.4 -3.2°
Sets 11:46:29 0° 79° (E) 2,976 11.5 -2.8°
